Location: Acequia del Cap
(41.7000°N, 0.6167°E)
Time: 16:50:26
(UTC+00:00)

Cosmos 923 Rocket - Pass Details

Date: 07 August 2020
Orbit: 758 x 785 km, 74.0° (Epoch: 22 September)

Event Time Altitude Azimuth Distance (km) Brightness Sun altitude
Rises 02:41:44 0° 336° (NNW) 3,280 7.6 -21.4°
Reaches altitude 10° 02:44:10 10° 332° (NNW) 2,345 6.7 -21.1°
Maximum altitude 02:49:22 56° 255° (WSW) 921 4.1 -20.5°
Enters shadow 02:51:01 39° 200° (SSW) 1,146 4.4 -20.3°
